Weather History for Ozona, TX

Change the Weather History Date:

Monday, March 24, 2014

  Actual Average Record
Temperature  
Mean Temperature 59 °F -  
Max Temperature 77 °F 74 °F 90 °F (2012)
Min Temperature 41 °F 40 °F 32 °F (2013)
Degree Days  
Heating Degree Days 6    
Growing Degree Days 9 (Base 50)    
Moisture  
Dew Point 36 °F    
Average Humidity 49    
Maximum Humidity 70    
Minimum Humidity 21    
Precipitation  
Precipitation 0.00 in - - ()
Sea Level Pressure  
Sea Level Pressure 30.13 in    
Wind  
Wind Speed 4 mph (ESE)    
Max Wind Speed 14 mph    
Max Gust Speed 17 mph    
Visibility 10 miles    
Events      
Averages and records for this station are not official NWS values.
T = Trace of Precipitation, MM = Missing Value Source: NWS Daily Summary

Daily Weather History Graph

Daily Weather History Graph

Search for Another Location

Airport:

Trip Planner

Search our weather history database for the weather conditions in past years. The results will help you decide how hot, cold, wet, or windy it might be!

Date:

Astronomy

Mar. 24, 2014 Rise Set
Actual Time 7:43 AM CDT 7:58 PM CDT
Civil Twilight 7:19 AM CDT 8:22 PM CDT
Nautical Twilight 6:51 AM CDT 8:51 PM CDT
Astronomical Twilight 6:22 AM CDT 9:19 PM CDT
Moon 2:53 AM CDT (3/24) 1:47 PM CDT (3/24)
Length of Visible Light 13h 03m
Length of Day
12h 15m
Last Quarter, 43% of the Moon is Illuminated
Mar 24
Last Quarter
Mar 30
New
Apr 7
First Quarter
Apr 15
Full
Apr 22
Last Quarter

Hourly Weather History & Observations

Time (CDT) Temp. Windchill Dew Point Humidity Pressure Visibility Wind Dir Wind Speed Gust Speed Precip Events Conditions
12:15 AM 44.6 °F 43.1 °F 32.0 °F 61% 30.25 in 10.0 mi East 3.5 mph - N/A   Scattered Clouds
12:35 AM 44.6 °F - 32.0 °F 61% 30.25 in 10.0 mi Calm Calm - N/A   Scattered Clouds
12:55 AM 44.6 °F 43.1 °F 32.0 °F 61% 30.25 in 10.0 mi NNE 3.5 mph - N/A   Clear
1:15 AM 42.8 °F - 32.0 °F 66% 30.24 in 10.0 mi Calm Calm - N/A   Clear
1:35 AM 42.8 °F 40.1 °F 32.0 °F 66% 30.24 in 10.0 mi NNE 4.6 mph - N/A   Clear
1:55 AM 41.0 °F 39.0 °F 32.0 °F 70% 30.23 in 10.0 mi NE 3.5 mph - N/A   Clear
2:15 AM 41.0 °F - 32.0 °F 70% 30.23 in 10.0 mi Calm Calm - N/A   Clear
2:35 AM 41.0 °F - 32.0 °F 70% 30.23 in 10.0 mi Calm Calm - N/A   Clear
2:55 AM 41.0 °F - 32.0 °F 70% 30.22 in 10.0 mi Calm Calm - N/A   Clear
3:15 AM 41.0 °F - 32.0 °F 70% 30.20 in 10.0 mi Calm Calm - N/A   Scattered Clouds
3:35 AM 41.0 °F - 32.0 °F 70% 30.20 in 10.0 mi Calm Calm - N/A   Scattered Clouds
3:55 AM 42.8 °F - 32.0 °F 66% 30.19 in 10.0 mi Calm Calm - N/A   Scattered Clouds
4:15 AM 42.8 °F 40.1 °F 33.8 °F 70% 30.19 in 10.0 mi SSE 4.6 mph - N/A   Scattered Clouds
4:35 AM 44.6 °F 41.4 °F 33.8 °F 66% 30.18 in 10.0 mi SSE 5.8 mph - N/A   Scattered Clouds
4:55 AM 44.6 °F 42.2 °F 33.8 °F 66% 30.17 in 10.0 mi SSE 4.6 mph - N/A   Clear
5:15 AM 44.6 °F 41.4 °F 33.8 °F 66% 30.17 in 10.0 mi SSE 5.8 mph - N/A   Clear
5:35 AM 44.6 °F 41.4 °F 33.8 °F 66% 30.17 in 10.0 mi SSE 5.8 mph - N/A   Scattered Clouds
5:55 AM 44.6 °F 43.1 °F 33.8 °F 66% 30.16 in 10.0 mi SSE 3.5 mph - N/A   Overcast
6:15 AM 44.6 °F 43.1 °F 33.8 °F 66% 30.16 in 10.0 mi SE 3.5 mph - N/A   Mostly Cloudy
6:35 AM 44.6 °F 42.2 °F 33.8 °F 66% 30.16 in 10.0 mi SSE 4.6 mph - N/A   Scattered Clouds
6:55 AM 44.6 °F 40.7 °F 33.8 °F 66% 30.16 in 10.0 mi SE 6.9 mph - N/A   Mostly Cloudy
7:15 AM 46.4 °F 44.3 °F 33.8 °F 62% 30.16 in 10.0 mi SE 4.6 mph - N/A   Overcast
7:35 AM 44.6 °F - 32.0 °F 61% 30.16 in 10.0 mi Calm Calm - N/A   Mostly Cloudy
7:55 AM 46.4 °F 43.5 °F 33.8 °F 62% 30.17 in 10.0 mi ESE 5.8 mph - N/A   Mostly Cloudy
8:15 AM 46.4 °F 44.3 °F 33.8 °F 62% 30.17 in 10.0 mi ESE 4.6 mph - N/A   Mostly Cloudy
8:35 AM 46.4 °F 44.3 °F 33.8 °F 62% 30.17 in 10.0 mi SE 4.6 mph - N/A   Mostly Cloudy
8:55 AM 46.4 °F 43.5 °F 33.8 °F 62% 30.17 in 10.0 mi SE 5.8 mph - N/A   Mostly Cloudy
9:15 AM 46.4 °F 43.5 °F 33.8 °F 62% 30.16 in 10.0 mi SE 5.8 mph - N/A   Overcast
9:35 AM 48.2 °F - 33.8 °F 58% 30.17 in 10.0 mi SE 4.6 mph - N/A   Overcast
9:55 AM 48.2 °F - 35.6 °F 62% 30.17 in 10.0 mi SSW 3.5 mph - N/A   Overcast
10:15 AM 50.0 °F - 35.6 °F 58% 30.17 in 10.0 mi Calm Calm - N/A   Mostly Cloudy
10:35 AM 50.0 °F - 35.6 °F 58% 30.17 in 10.0 mi Calm Calm - N/A   Mostly Cloudy
10:55 AM 51.8 °F - 37.4 °F 58% 30.16 in 10.0 mi South 4.6 mph - N/A   Mostly Cloudy
11:15 AM 53.6 °F - 37.4 °F 54% 30.16 in 10.0 mi South 5.8 mph - N/A   Scattered Clouds
11:35 AM 55.4 °F - 37.4 °F 51% 30.15 in 10.0 mi SSW 3.5 mph - N/A   Clear
11:55 AM 57.2 °F - 37.4 °F 48% 30.15 in 10.0 mi SE 4.6 mph - N/A   Clear
12:15 PM 59.0 °F - 39.2 °F 48% 30.15 in 10.0 mi South 4.6 mph - N/A   Clear
12:35 PM 60.8 °F - 41.0 °F 48% 30.13 in 10.0 mi Calm Calm - N/A   Clear
12:55 PM 60.8 °F - 41.0 °F 48% 30.12 in 10.0 mi Calm Calm - N/A   Clear
1:15 PM 64.4 °F - 41.0 °F 42% 30.11 in 10.0 mi SE 4.6 mph - N/A   Clear
1:35 PM 66.2 °F - 41.0 °F 40% 30.10 in 10.0 mi Calm Calm - N/A   Clear
1:55 PM 68.0 °F - 42.8 °F 40% 30.09 in 10.0 mi SSW 8.1 mph - N/A   Clear
2:15 PM 69.8 °F - 42.8 °F 38% 30.08 in 10.0 mi SW 6.9 mph - N/A   Clear
2:35 PM 69.8 °F - 42.8 °F 38% 30.07 in 10.0 mi SW 4.6 mph - N/A   Clear
2:55 PM 69.8 °F - 41.0 °F 35% 30.05 in 10.0 mi West 8.1 mph - N/A   Clear
3:15 PM 71.6 °F - 41.0 °F 33% 30.05 in 10.0 mi WSW 4.6 mph - N/A   Clear
3:35 PM 71.6 °F - 41.0 °F 33% 30.04 in 10.0 mi SW 4.6 mph - N/A   Clear
3:55 PM 71.6 °F - 41.0 °F 33% 30.04 in 10.0 mi NW 8.1 mph - N/A   Clear
4:15 PM 71.6 °F - 41.0 °F 33% 30.03 in 10.0 mi North 5.8 mph - N/A   Clear
4:35 PM 73.4 °F - 39.2 °F 29% 30.03 in 10.0 mi WNW 4.6 mph - N/A   Clear
4:55 PM 75.2 °F - 37.4 °F 25% 30.03 in 10.0 mi NNW 5.8 mph - N/A   Clear
5:15 PM 75.2 °F - 35.6 °F 24% 30.03 in 10.0 mi NNE 10.4 mph 16.1 mph N/A   Clear
5:35 PM 75.2 °F - 35.6 °F 24% 30.02 in 10.0 mi North 6.9 mph - N/A   Clear
5:55 PM 77.0 °F - 35.6 °F 22% 30.02 in 10.0 mi WNW 6.9 mph - N/A   Clear
6:15 PM 75.2 °F - 35.6 °F 24% 30.02 in 10.0 mi Calm Calm - N/A   Clear
6:35 PM 77.0 °F - 33.8 °F 21% 30.03 in 10.0 mi NNW 8.1 mph - N/A   Clear
6:55 PM 77.0 °F - 33.8 °F 21% 30.03 in 10.0 mi North 5.8 mph - N/A   Clear
7:15 PM 75.2 °F - 33.8 °F 22% 30.04 in 10.0 mi Calm Calm - N/A   Clear
7:35 PM 73.4 °F - 33.8 °F 23% 30.04 in 10.0 mi Calm Calm - N/A   Clear
7:55 PM 71.6 °F - 32.0 °F 23% 30.05 in 10.0 mi NE 5.8 mph - N/A   Clear
8:15 PM 69.8 °F - 32.0 °F 25% 30.06 in 10.0 mi NNE 8.1 mph - N/A   Clear
8:35 PM 66.2 °F - 33.8 °F 30% 30.07 in 10.0 mi NNE 8.1 mph - N/A   Clear
8:55 PM 64.4 °F - 33.8 °F 32% 30.08 in 10.0 mi NNE 9.2 mph - N/A   Clear
9:15 PM 62.6 °F - 35.6 °F 37% 30.09 in 10.0 mi ENE 10.4 mph - N/A   Clear
9:35 PM 64.4 °F - 37.4 °F 37% 30.11 in 10.0 mi East 8.1 mph - N/A   Clear
9:55 PM 64.4 °F - 41.0 °F 42% 30.12 in 10.0 mi East 13.8 mph 17.3 mph N/A   Clear
10:15 PM 62.6 °F - 42.8 °F 48% 30.13 in 10.0 mi East 11.5 mph - N/A   Clear
10:35 PM 62.6 °F - 42.8 °F 48% 30.14 in 10.0 mi East 9.2 mph - N/A   Clear
10:55 PM 60.8 °F - 42.8 °F 52% 30.16 in 10.0 mi SE 8.1 mph - N/A   Clear
11:15 PM 59.0 °F - 42.8 °F 55% 30.16 in 10.0 mi SE 8.1 mph - N/A   Clear
11:35 PM 59.0 °F - 42.8 °F 55% 30.16 in 10.0 mi ESE 5.8 mph - N/A   Clear
11:55 PM 59.0 °F - 42.8 °F 55% 30.17 in 10.0 mi East 9.2 mph - N/A   Clear